RH
64 66 66 59 58 54 38 25 20 19 19 20 21 23 24 24 25 26 26 28 29 31 31 32 31 30 29 29 29 29 29 30 29 29 28 27 25 24 20 15 10 6 5 4 4 3 3 3 3 3 3 3
70 72 68 62 63 54 34 24 19 19 20 20 23 25 25 24 26 26 27 29 30 31 32 32 31 29 29 29 29 28 29 29 29 28 27 26 24 22 18 13 9 6 5 3 3 3 3 3 3 3 3 2
76 74 69 68 66 49 30 23 20 20 21 22 25 26 25 25 26 27 28 29 30 31 32 33 31 29 30 29 29 28 28 28 28 26 24 23 21 19 16 11 7 5 4 4 3 3 3 3 3 3 2 2
78 72 70 74 64 43 28 22 20 21 22 23 25 26 27 27 27 28 29 30 31 32 32 33 31 29 30 30 29 28 28 28 26 24 21 19 18 16 13 8 6 5 4 3 3 3 3 3 2 3 2 2
76 69 73 77 62 43 29 21 21 22 22 23 25 26 28 28 28 28 30 31 32 33 33 33 31 30 30 30 29 28 27 26 25 22 17 14 13 12 9 7 6 4 4 3 3 3 3 3 2 2 2 2
74 70 79 79 62 47 31 22 21 21 22 23 25 27 28 29 29 30 31 32 33 33 34 33 31 30 30 30 29 28 27 26 24 20 14 11 10 9 8 7 6 4 4 3 3 3 3 3 2 2 2 2
84 80 86 78 62 49 30 22 22 21 24 24 26 28 29 30 30 32 32 33 34 34 34 34 32 30 30 31 30 28 27 26 23 19 15 11 8 7 7 5 4 3 3 3 3 3 3 3 2 2 2 2
97 93 91 77 61 47 29 23 22 22 25 25 28 29 29 30 31 33 33 34 34 34 34 34 33 31 31 31 30 29 27 25 22 18 15 11 7 6 5 4 3 3 3 3 3 3 3 3 2 2 2 2
100 98 91 76 58 42 28 24 22 23 25 26 29 29 30 31 33 34 33 35 35 35 35 35 34 31 32 32 31 29 26 24 20 17 13 9 7 5 4 4 3 3 3 3 3 3 3 3 2 2 2 2
99 99 87 70 53 38 28 24 22 24 26 28 30 30 32 33 34 35 34 35 35 36 36 35 35 32 32 32 31 29 26 23 19 16 12 9 7 5 4 4 3 3 3 3 3 3 3 3 3 2 2 2
99 100 86 65 49 37 29 24 22 25 27 29 31 31 33 35 36 36 36 36 36 37 37 37 36 34 33 33 32 30 27 24 20 16 12 9 7 5 4 4 3 3 3 3 3 3 3 3 3 3 2 2
99 100 88 65 48 37 29 24 23 26 28 29 32 33 34 36 37 37 37 37 37 37 37 38 37 35 34 33 33 32 29 26 22 17 13 10 8 6 5 4 4 3 3 3 3 3 3 3 3 3 3 3
99 99 88 64 46 35 28 25 25 27 28 30 33 34 35 36 38 38 39 38 39 38 38 39 38 37 35 34 34 33 31 28 24 19 15 11 9 7 5 5 4 3 3 3 3 3 3 3 3 3 3 3
98 98 82 58 43 35 28 25 26 28 29 31 33 35 36 37 39 40 40 40 40 40 39 39 39 39 37 36 35 34 33 30 27 22 18 14 11 9 7 6 5 4 4 3 3 3 3 3 3 3 3 3
99 95 76 54 42 34 29 27 28 30 31 33 34 36 37 38 40 41 41 41 42 42 40 40 40 40 39 37 36 35 35 33 30 26 21 17 14 12 10 8 7 6 5 5 4 4 4 4 3 3 3 3
98 92 74 55 43 34 29 29 31 32 33 35 36 37 38 40 42 42 43 43 43 43 42 41 40 41 41 39 38 37 36 35 33 30 26 22 19 16 14 12 10 9 8 7 6 6 6 5 5 4 3 3
96 94 78 58 45 36 32 32 33 34 36 37 38 39 40 41 43 44 45 45 45 45 44 43 42 41 42 41 40 39 37 37 36 34 30 26 23 20 18 16 14 13 11 9 9 8 8 7 7 6 5 5
95 97 84 63 51 43 37 35 35 37 38 39 40 40 41 42 43 45 47 47 47 47 46 46 44 42 42 42 42 41 40 39 38 37 35 32 28 24 22 20 18 17 15 13 12 11 10 10 10 9 9 9
97 95 84 68 59 53 49 45 41 41 40 40 41 40 41 42 43 45 47 48 49 48 48 47 47 45 43 42 43 43 42 41 40 40 39 37 34 30 27 24 22 20 18 17 15 14 13 13 12 12 12 13
100 97 88 76 67 65 66 64 59 54 48 43 41 40 40 41 41 44 46 48 49 49 50 49 48 48 46 44 43 43 43 43 43 42 42 41 40 36 33 29 26 24 22 21 18 18 17 15 15 15 15 16
99 100 97 87 77 72 73 75 75 71 66 57 47 40 39 39 40 41 44 46 48 50 51 50 50 50 49 48 45 44 43 44 45 45 44 44 43 42 39 36 33 30 28 25 23 22 20 18 18 18 17 19
99 100 100 97 87 79 79 81 81 82 82 79 69 55 45 41 40 41 42 45 47 49 50 50 51 52 51 50 49 47 45 44 45 45 46 46 45 45 44 42 39 37 34 32 29 27 24 22 22 21 21 22
100 100 99 99 95 90 93 94 93 93 92 90 87 77 64 53 46 43 42 43 45 48 50 51 52 54 54 52 51 51 49 47 46 45 45 46 46 46 47 46 45 43 41 38 36 33 30 28 27 26 25 25
100 100 99 98 97 97 99 100 99 99 97 94 91 87 80 70 57 48 43 43 44 46 49 51 53 55 56 55 55 53 52 51 50 47 45 45 45 46 47 48 48 48 47 44 41 39 37 35 34 32 30 30
98 99 100 100 98 99 100 100 99 98 96 88 85 86 85 81 73 61 49 43 44 45 48 49 52 55 56 57 58 57 55 53 52 50 47 46 45 46 46 48 49 50 50 49 47 44 42 40 39 37 35 35
94 95 98 99 99 100 99 99 100 99 93 83 81 82 80 80 81 78 66 53 47 44 46 48 50 54 55 56 57 58 58 56 55 53 51 50 49 48 48 47 48 48 50 51 50 49 47 44 43 42 41 41
96 94 95 97 98 99 98 97 98 99 97 93 93 91 85 80 80 87 86 75 62 52 47 47 49 53 55 55 55 56 57 56 56 56 54 53 53 52 51 50 48 47 48 50 51 51 50 49 47 45 44 44
99 97 97 98 98 99 99 97 97 99 100 100 99 99 97 89 82 84 88 85 77 65 54 48 48 52 53 53 53 53 54 54 56 58 58 57 56 55 54 53 51 50 50 50 50 50 51 51 50 48 48 47
98 98 100 99 99 100 100 99 99 100 100 100 100 100 100 98 92 87 84 83 78 70 62 54 49 50 52 54 53 53 54 54 55 56 56 56 56 57 57 56 55 54 54 54 53 52 51 50 49 50 50 50
97 98 99 100 99 99 100 100 99 99 100 100 100 100 100 100 100 97 93 88 78 68 62 57 53 52 53 54 54 55 55 55 54 54 55 56 56 57 59 59 59 58 58 58 57 56 54 51 50 50 50 51
98 97 98 99 100 100 100 100 100 100 100 100 100 100 100 100 100 100 100 97 91 81 69 60 57 56 56 57 57 57 57 56 56 56 56 57 56 56 58 58 59 60 62 62 62 61 58 57 56 54 52 50
Wind_Speed
30 29 27 24 20 18 17 16 16 15 13 12 11 11 12 11 11 12 11 11 10 9 10 11 11 12 12 12 12 12 11 10 9 10 11 11 11 10 10 9 10 11 11 12 13 13 13 13 13 14 14 14
29 29 27 23 19 18 18 17 17 15 14 13 12 13 13 12 12 13 12 11 10 9 10 11 11 12 12 12 12 12 11 10 10 10 10 10 10 11 10 10 11 12 12 12 12 12 12 13 14 14 14 14
28 29 26 22 19 18 18 18 18 16 15 14 14 14 13 12 13 14 12 11 10 10 10 11 11 11 11 12 12 12 11 10 10 10 10 10 10 11 10 10 11 12 12 12 12 12 12 13 14 14 14 14
28 29 26 22 19 19 20 19 19 17 17 16 15 15 14 14 14 14 13 12 10 10 10 11 12 11 11 12 12 12 11 10 10 10 9 10 11 11 10 11 12 13 13 12 11 11 13 13 13 14 14 14
29 29 25 21 20 21 21 21 20 19 18 17 16 15 15 15 15 14 13 12 11 10 10 11 12 11 11 12 12 12 11 10 10 10 9 10 11 11 12 13 13 13 13 12 12 12 13 13 13 13 14 14
29 28 24 21 23 23 22 21 21 19 18 17 16 16 16 16 15 15 14 13 12 11 10 11 12 11 11 12 13 12 11 11 10 10 10 11 11 11 12 13 13 13 13 13 13 13 13 12 12 13 13 13
29 28 24 23 25 24 23 22 21 19 18 17 17 17 17 16 16 15 15 14 12 11 11 11 11 11 11 11 12 12 12 11 11 10 11 11 11 11 12 12 13 13 14 14 13 13 12 11 11 12 12 12
29 27 23 25 26 25 23 23 22 20 19 18 18 18 17 16 16 16 16 14 13 12 11 11 11 11 10 10 12 13 12 11 11 11 11 11 11 12 12 13 13 14 14 14 13 13 12 11 11 11 12 12
26 25 24 27 27 25 24 23 22 20 19 19 19 19 18 17 17 17 16 15 14 12 12 11 11 11 10 10 11 12 12 11 11 12 11 11 12 12 13 13 13 13 13 13 13 13 12 11 11 11 11 11
24 24 26 29 28 26 25 23 22 21 19 19 19 19 18 18 18 18 17 16 14 13 12 11 11 11 10 10 10 12 12 11 11 12 12 12 13 13 13 13 13 13 13 13 13 13 12 12 11 11 11 11
23 25 27 29 28 26 25 24 23 21 21 20 20 19 19 19 19 18 18 17 15 14 13 12 11 11 11 10 10 11 11 11 11 11 12 12 13 13 13 13 13 13 13 13 12 12 12 12 11 11 11 11
23 25 28 30 28 27 25 24 24 22 22 21 20 20 20 19 19 19 18 17 16 14 14 12 12 11 11 10 10 10 11 11 11 11 12 12 13 13 13 13 13 13 13 13 12 12 12 11 11 11 11 11
25 25 30 32 29 27 25 25 25 24 23 22 21 20 20 20 19 19 19 18 17 15 14 13 12 12 11 11 10 10 10 11 11 11 12 12 13 13 13 13 13 13 13 13 12 12 11 11 11 11 11 11
26 26 29 31 29 27 26 26 26 24 24 22 21 21 20 20 20 20 20 19 18 16 15 14 13 12 12 11 10 10 10 11 11 12 12 12 13 13 13 13 13 13 12 12 12 12 11 11 11 11 11 11
26 26 28 29 28 26 26 26 26 25 24 23 21 21 21 20 20 21 20 20 19 18 16 15 14 13 13 12 11 10 10 10 11 12 12 13 13 13 13 13 13 13 13 13 12 12 12 11 11 11 11 12
25 25 26 28 27 25 25 26 26 25 24 23 22 22 21 21 21 21 21 21 20 19 17 16 15 14 13 12 12 11 10 10 11 11 12 13 13 13 13 13 13 13 13 13 12 12 12 12 12 12 12 12
25 24 25 27 26 23 23 25 25 24 23 23 23 22 22 21 21 21 22 22 21 20 19 17 16 15 14 13 12 12 11 11 11 11 12 13 13 13 13 13 13 14 13 13 13 13 12 12 12 12 12 12
26 24 25 26 24 22 22 25 25 24 24 23 23 23 22 22 21 22 22 22 22 21 20 19 17 16 15 14 14 13 12 11 11 12 12 13 13 13 13 13 14 14 14 14 14 13 13 13 12 12 12 13
24 21 24 25 24 22 22 24 24 24 25 24 24 24 23 23 22 22 22 23 23 22 21 20 18 17 16 15 15 15 14 13 12 12 12 12 13 13 13 13 14 14 14 14 14 14 14 14 13 14 14 14
21 19 22 24 23 22 21 22 23 24 24 25 25 25 24 24 23 22 22 23 23 23 23 22 20 19 18 17 17 16 16 15 14 14 13 13 13 13 13 14 14 14 15 15 15 15 15 15 15 15 15 15
20 19 20 22 23 22 22 21 22 22 23 25 25 25 25 25 24 23 23 23 23 23 23 23 22 21 20 19 18 18 18 17 17 16 15 14 14 13 13 14 14 14 15 15 15 16 15 16 16 16 16 16
20 21 21 22 23 22 21 21 20 21 22 23 24 25 25 25 24 23 24 23 23 23 23 24 23 23 23 21 19 19 19 18 18 18 17 16 15 15 14 15 15 15 15 15 15 16 16 17 17 17 18 17
20 25 24 22 22 21 21 21 19 19 22 23 23 24 24 24 24 24 25 24 24 23 23 24 24 24 25 23 22 21 20 19 19 19 19 18 18 17 16 16 16 16 16 16 16 16 16 17 17 18 18 18
20 26 25 23 23 22 24 25 21 19 22 23 23 23 24 24 24 24 25 25 25 24 24 24 23 25 26 24 23 22 21 20 20 21 21 21 21 20 18 18 17 17 17 17 18 17 17 17 18 18 19 19
19 23 24 23 24 24 25 25 23 20 20 22 23 23 24 25 24 24 25 26 25 25 25 24 23 24 25 25 23 24 23 22 22 22 22 22 23 22 21 20 20 19 18 19 19 18 18 18 19 20 20 20
21 23 24 24 26 27 25 25 25 21 17 19 21 19 20 23 25 24 24 25 26 26 26 25 23 24 25 24 24 24 25 24 24 25 25 24 24 24 23 22 22 22 21 21 21 20 20 21 21 21 21 22
22 22 23 23 25 29 27 25 24 22 20 21 19 16 18 20 22 24 24 25 25 26 26 26 24 24 25 25 24 25 26 26 26 27 28 27 26 26 25 24 24 23 23 23 23 23 22 22 23 24 23 23
22 20 19 20 22 26 25 22 21 21 23 25 21 17 16 17 19 21 23 24 24 25 26 26 25 24 25 25 25 25 27 27 27 29 30 30 29 29 28 27 26 25 25 26 26 25 24 24 26 25 23 24
22 20 18 16 18 22 24 22 21 20 20 24 26 23 18 17 17 18 21 22 23 24 25 26 26 25 26 26 26 26 27 28 29 30 31 32 32 32 31 31 30 29 28 28 28 27 26 27 28 26 25 27
21 21 20 17 16 20 23 22 23 23 19 18 23 26 24 22 19 17 19 21 22 22 23 25 26 26 27 27 27 27 28 29 30 31 32 33 33 33 33 34 34 32 30 31 31 30 29 29 29 28 29 31
24 23 22 21 20 22 23 23 23 26 25 20 19 23 26 27 26 23 19 19 21 21 22 24 26 27 28 29 29 29 30 30 30 31 32 33 34 35 35 36 36 34 33 34 34 33 33 32 31 32 33 34
Wind_Direction
205 209 213 216 216 219 221 221 221 222 225 229 232 233 236 238 233 233 232 234 240 247 254 258 258 259 260 258 254 249 244 237 231 233 235 235 232 227 219 213 212 216 219 222 226 226 226 227 227 227 225 224
204 209 212 215 215 218 221 221 219 217 221 226 227 229 235 235 232 233 233 234 239 245 253 257 258 259 258 256 253 248 242 235 229 229 231 232 231 225 218 211 211 215 217 219 224 227 228 228 229 229 226 224
205 210 213 213 213 217 220 219 218 215 218 222 223 227 234 234 232 232 232 234 238 245 252 257 259 259 258 255 251 247 241 234 227 224 224 227 228 225 218 212 213 216 216 217 220 225 229 230 230 230 228 226
207 212 214 209 209 215 219 219 217 214 217 219 221 226 230 231 232 232 232 234 238 244 249 254 258 258 257 255 252 247 241 234 227 222 219 221 224 223 218 213 214 216 216 217 217 221 226 230 230 231 230 228
211 215 212 205 210 216 219 219 216 215 219 221 221 226 226 227 231 231 232 233 237 243 247 252 256 256 255 255 253 248 242 234 230 224 216 215 218 218 217 214 212 213 214 215 215 218 224 228 229 230 231 230
216 218 209 204 214 220 222 221 219 219 223 223 222 225 225 225 229 231 232 232 235 241 244 250 254 255 254 256 255 250 243 236 233 226 218 215 215 217 219 218 215 213 213 213 213 217 222 225 227 229 231 231
217 218 207 205 217 221 223 223 221 221 222 224 225 226 226 225 226 229 232 233 235 239 242 247 253 253 252 254 255 252 244 238 234 228 224 219 215 217 219 218 218 216 214 212 211 215 218 220 226 229 231 232
219 220 208 209 220 222 223 223 222 222 221 224 227 227 226 225 226 228 231 233 235 237 240 244 249 249 249 251 252 251 246 240 235 232 230 225 218 215 215 215 217 217 216 214 210 212 213 214 220 226 231 233
231 226 211 213 220 222 223 222 223 222 220 224 227 228 227 225 225 227 231 233 234 236 238 241 246 247 246 246 248 250 247 241 234 232 230 226 221 215 213 213 215 217 218 216 212 211 209 209 215 222 228 233
238 229 213 214 218 221 222 223 223 221 220 223 227 229 227 225 225 227 230 233 235 236 237 238 241 244 243 243 244 246 245 239 234 231 228 226 223 218 215 213 213 215 217 217 215 213 208 206 211 217 224 231
236 229 216 216 219 221 221 222 222 220 221 223 226 229 228 226 225 227 229 233 235 236 237 237 238 240 241 242 242 243 243 241 236 232 230 228 225 220 217 214 213 212 214 215 215 215 210 206 208 212 221 227
236 229 218 219 220 222 221 220 220 219 222 223 224 227 228 227 227 228 230 233 234 236 238 237 237 238 239 240 240 242 243 242 240 235 232 230 226 223 219 216 215 214 215 214 213 215 212 209 208 209 218 225
239 227 216 219 220 221 220 219 219 218 221 223 224 226 229 228 227 230 232 234 235 236 239 238 238 237 238 239 236 238 241 242 241 238 235 232 228 224 222 219 217 217 217 217 215 215 214 213 212 212 216 224
240 228 217 220 221 220 219 218 218 218 221 223 224 226 229 229 228 230 233 235 237 238 239 239 239 237 237 237 235 235 238 240 240 239 237 234 231 227 224 221 220 219 218 220 219 216 215 214 216 218 219 223
243 230 220 221 222 221 219 218 219 219 221 222 224 226 228 231 230 231 233 235 238 239 241 241 241 240 238 236 235 234 234 238 240 240 239 237 235 231 226 223 221 220 220 221 221 220 218 215 217 220 222 224
241 233 226 224 224 222 219 219 220 221 222 222 224 227 229 231 233 234 234 236 238 240 242 243 244 243 241 239 237 234 234 236 240 242 241 240 238 235 231 228 224 221 221 222 223 224 222 220 219 220 223 225
234 239 235 227 225 221 218 220 222 224 225 226 226 228 230 232 234 236 237 238 239 241 243 245 246 246 245 244 241 238 235 235 239 241 243 243 241 239 237 233 230 226 223 223 223 225 225 225 225 224 225 226
229 239 241 232 225 219 218 222 224 226 227 229 230 231 232 233 235 237 239 240 241 242 244 246 248 248 248 247 245 242 238 237 238 240 242 244 244 242 241 239 237 232 227 226 226 226 227 228 228 227 227 227
234 237 242 237 229 221 220 224 225 228 229 230 232 233 233 234 236 238 240 242 243 244 245 247 249 250 250 249 248 246 243 240 239 241 242 244 245 244 243 242 242 239 235 231 229 228 229 230 230 229 229 228
239 233 242 244 239 231 227 228 230 231 233 233 233 234 234 236 237 238 241 243 244 245 246 248 249 251 252 250 250 249 247 244 241 242 243 244 246 246 245 244 244 245 243 240 237 234 233 234 233 233 232 231
236 228 241 246 245 241 235 232 232 234 237 238 236 235 235 236 238 240 242 244 245 246 246 247 249 251 253 252 251 250 249 248 246 244 244 246 248 248 247 246 246 247 248 248 246 244 241 240 238 237 237 235
247 236 235 236 239 241 243 242 240 241 243 244 242 240 239 238 239 241 243 245 247 247 247 247 248 250 252 253 253 252 252 252 251 249 247 247 249 251 251 250 249 247 249 249 250 251 250 248 246 244 244 241
265 251 234 226 227 230 240 248 250 251 253 253 250 246 244 243 241 241 241 243 245 246 248 248 248 250 252 254 255 256 256 256 256 256 253 252 251 252 253 254 254 252 252 250 250 251 252 253 253 252 251 248
269 256 238 223 221 225 234 237 237 245 253 256 257 253 248 247 244 242 242 242 243 244 247 248 247 250 252 253 256 259 260 260 260 260 258 257 256 255 255 256 257 256 256 254 252 251 252 255 257 256 255 254
263 258 249 240 234 234 234 235 236 240 249 252 256 256 251 249 246 244 244 243 243 243 245 247 246 248 252 253 256 259 260 260 261 262 261 261 260 259 257 256 257 258 258 259 258 257 256 256 256 256 257 258
257 256 256 255 253 251 247 249 248 241 242 247 253 259 258 252 246 243 243 243 243 243 243 246 246 248 251 252 253 255 258 259 260 262 262 262 262 262 261 259 259 259 261 262 262 260 257 257 258 258 258 260
250 254 256 255 256 259 261 260 252 241 240 243 248 261 268 262 251 245 245 243 243 243 243 244 245 247 249 251 251 252 255 256 258 260 262 263 263 264 264 263 263 262 262 263 262 261 261 262 261 260 261 264
243 246 258 264 257 258 265 266 257 252 253 253 250 253 266 270 262 252 248 246 245 244 243 243 243 244 248 251 251 251 253 254 255 258 260 262 263 265 266 266 265 264 263 264 264 264 264 263 262 263 266 267
240 236 243 261 265 263 267 266 259 257 260 261 256 249 253 263 266 261 253 249 247 245 243 242 242 243 246 249 251 251 251 252 253 254 257 259 261 263 264 265 264 263 264 266 266 266 266 265 266 267 267 265
239 237 236 242 254 258 259 259 257 254 252 256 257 252 249 252 258 262 256 251 249 246 244 243 242 243 245 248 250 251 251 252 253 254 256 258 260 261 262 263 263 263 264 266 267 267 268 268 269 268 264 263
231 233 234 235 238 241 246 250 251 248 242 239 247 250 247 245 246 247 247 249 252 252 248 244 243 244 245 248 250 251 252 253 254 255 256 258 259 260 261 262 264 264 264 265 267 268 268 268 268 267 265 264